STARLINK-33801, 63963

Orbit data source: Space-Track

STARLINK-33801, 63963 is a payload satellite owned by SpaceX/Seattle (US) in LEO that was launched on Tue, 13 May 2025 UTC via an FALCON 9 launch vehicle from the Air Force Eastern Test Range (AFETR). Payload-class satellites include a variety of spacecraft equipped with specific instruments for various scientific and technological missions. These include communications satellites like Starlink; space stations such as the ISS; scientific satellites like the Hubble; Earth observation satellites from companies like Planet Labs, Umbra, and HawkEye 360; GPS; miniature CubeSats for education and research; and military/defense satellites.

Loading next visibility...
Identifier
63963, 2025-099M
Orbit
LEO
Country
Flag of USUS
Related business
Manufacturer
SpaceX/Seattle
Mission
Operational Commercial Communications
Bus & Motor
STARLINK V2MO, Unknown motor
Mass
575 kg wet, ~530 kg dry
Launch date (UTC)
2025-05-13 (11 months ago)
Launch vehicle
FALCON 9
Launch site
Air Force Eastern Test Range (AFETR)
Object type
Payload
Rocket body
Debris
Shape & HBR
Box + 2 Pan, 17.7 m
Radar Cross Section
36.964 m², Large (>1 m²)

Expand to show TLE details & history
Last TLE update: 1 day ago

TLE from 1 day ago
0 STARLINK-33801
1 63963U 25099M   26093.18187780  .00053397  00000-0  19325-2 0  9991
2 63963  43.0028  37.7598 0001455 266.7675  93.3010 15.27637898 51085
Epoch: 2026-04-03T04:21Z
TLE epoch observation values (Epoch: 2026-04-03T04:21:54.241Z)
Latitude
-0.00005°
Longitude
140.76406°
Altitude
482.709 km
Speed
7.626 km/s
True Right ascension
02h 31m 02s
True Declination
0° 00' 00"
Sunlit
Object was in daylight at epoch
Visualization orbit readout
Latitude
Unknown
Longitude
Unknown
Altitude
Unknown
Speed
Unknown
Apparent Right ascension
Unknown
Apparent Declination
Unknown
Sunlit
N/A
Visualization observer readout
Local Sidereal Time
18:05:15
Azimuth
Unknown
Elevation
Unknown
Doppler factor
Unknown
Orbital elements
Apogee altitude
485.819 km
Perigee altitude
483.822 km
Semi-major axis
6,862.957 km
Eccentricity
0.00015
Inclination
43.0028°
RAAN
37.7598°
Arg. of periapsis
266.7675°
True anomaly
93.31765°
Mean anomaly
93.301°
Eccentric anomaly
93.30932°
Mean motion
3.81748 °/min
Orbital period
94.3 mins
BSTAR
0.0019325
Loading maneuver chart data...
Computing Atmospheric mass density...
Loading historical data...
Loading historical data...
Loading historical data...
Loading historical data...
Loading historical data...
Loading historical data...
Loading historical data...

Documentation

Showing up to 5 results
|